Location: Newark
(41.0400°S, 62.7845°W)
Time: 01:55:16
(UTC+00:00)

Vanguard 2 Rocket - Pass Details

Date: 01 December 2021
Orbit: 554 x 3325 km, 32.9° (Epoch: 21 January)

Event Time Altitude Azimuth Distance (km) Brightness Sun altitude
Rises 15:43:34 0° 267° (W) 4,788 10.5 70.5°
Reaches altitude 10° 15:48:22 10° 283° (WNW) 3,248 9.9 70.7°
Maximum altitude 15:53:15 18° 323° (NW) 2,151 9.3 70.8°
Drops below altitude 10° 15:56:55 10° 6° (N) 2,322 9.5 70.8°
Sets 15:59:38 0° 26° (NNE) 3,007 9.8 70.9°
